This is the latest recevied weather packets stored in our database for station/object CW79215. If no packets are shown the sender has not sent any weather packets the latest 10 day(s).
| Time | Temp. | Humidity | Pressure | Rain* | Wind** | Luminosity | Snow |
|---|---|---|---|---|---|---|---|
| 1777990033 | 19.44° C | 55% | 1011.5 hPa | - | - | - | - |
| 1777989133 | 19.44° C | 55% | 1011.6 hPa | - | - | - | - |
| 1777988233 | 18.89° C | 57% | 1011.9 hPa | - | - | - | - |
| 1777987333 | 18.33° C | 58% | 1012.2 hPa | - | - | - | - |
| 1777986433 | 18.33° C | 58% | 1012.2 hPa | - | - | - | - |
| 1777985532 | 18.33° C | 59% | 1012.4 hPa | - | - | - | - |
| 1777984632 | 17.22° C | 61% | 1012.6 hPa | - | - | - | - |
| 1777983732 | 17.78° C | 62% | 1012.5 hPa | - | - | - | - |
| 1777982832 | 17.22° C | 63% | 1012.7 hPa | - | - | - | - |
| 1777981932 | 17.22° C | 66% | 1012.9 hPa | - | - | - | - |
| 1777981032 | 17.22° C | 62% | 1012.9 hPa | - | - | - | - |
| 1777980132 | 17.22° C | 63% | 1012.9 hPa | - | - | - | - |
| 1777979232 | 17.22° C | 63% | 1013.1 hPa | - | - | - | - |
| 1777978332 | 17.22° C | 61% | 1013.1 hPa | - | - | - | - |
| 1777977432 | 17.22° C | 63% | 1013.2 hPa | - | - | - | - |
| 1777976532 | 16.67° C | 69% | 1013.1 hPa | - | - | - | - |
| 1777975632 | 17.22° C | 59% | 1013.2 hPa | - | - | - | - |
| 1777974731 | 17.78° C | 59% | 1013.3 hPa | - | - | - | - |
| 1777973831 | 17.22° C | 57% | 1013.3 hPa | - | - | - | - |
| 1777972931 | 17.22° C | 59% | 1013.3 hPa | - | - | - | - |
| 1777972031 | 17.22° C | 61% | 1013.5 hPa | - | - | - | - |
| 1777971131 | 16.67° C | 66% | 1013.6 hPa | - | - | - | - |
| 1777970231 | 16.11° C | 67% | 1013.7 hPa | - | - | - | - |
| 1777969330 | 16.67° C | 67% | 1013.8 hPa | - | - | - | - |
| 1777968430 | 16.67° C | 67% | 1013.9 hPa | - | - | - | - |
* Rain since midnight (hover to see other rain measurements)
** Current wind speed in m/s (hover to see current wind gust speed)